Weather in Vertyachy

Russia / Volgograd Oblast     48°56′51″N   43°54′58″E
temp.,
°C
wind,
m/s
gust,
m/s
humid.,
%
clouds,
%
prec.,
mm/h
press.,
hPa
HPBL,
m
1 august, sun
sun100:00+24e12290 0.0 101015
03:00+22e22370 0.0 101114
06:00+24e22320 0.0 101238
09:00+33ese33170 0.0 1012763
12:00+35e32140 0.0 10113424
15:00+37ne42130 0.0 10103678
18:00+35ne32131 0.0 10102584
21:00+28e33226 0.0 101131
2 august, mon
mon200:00+26se11254 0.0 101111
03:00+25ne22274 0.0 101112
06:00+26e22280 0.0 101122
09:00+34sse12190 0.0 1012725
12:00+37sse33145 0.0 10104043
15:00+38s641983 0.0 10093607
18:00+30ese1331100 0.4 101066
21:00+28sse8154236 0.4 1011501
3 august, tue
tue300:00+27sw33315 0.0 100931
03:00+25s33400 0.0 101025
06:00+26s34421 0.0 101096
09:00+35s45214 0.0 1010738
12:00+38ssw6614100 0.0 10093741
15:00+39ssw77146 0.0 10084083
18:00+38ssw67120 0.0 10073500
21:00+30w331992 0.0 100832
4 august, wed
wed400:00+27nne3541100 0.0 100979
03:00+23nnw6106096 0.2 1010266
06:00+21n597975 0.8 1012241
09:00+27nnw5652100 0.8 1012659
12:00+31nnw653835 0.0 10131676
15:00+33nnw56270 0.0 10122675
18:00+31nnw6427100 0.0 10132110
21:00+26nnw612405 0.0 1015384
5 august, thu
thu500:00+22n411475 0.0 1015281
03:00+20n4854100 0.0 1016144
06:00+21n365317 0.0 1016183
09:00+28nne56330 0.0 10171860
12:00+30nne44250 0.0 10162518
15:00+32nne442195 0.0 10152858
18:00+31nne442266 0.0 10152668
21:00+24ne33310 0.0 101530